User: anonymous   Login
Location: Unspecified
(0.0000°N, 0.0000°E)
Time: 14:47:47
(UTC+00:00)
Language:

S-NET B - Orbit

View from above orbital plane
View from above orbital plane
View from above satellite
View from above satellite

Ground track
Ground track

The orbit data is extracted from the following two-line orbital elements,

1 43187U 18014H   22279.64075652  .00003642  00000-0  31081-3 0  9995
2 43187  97.6474 183.1610 0009067 290.3618  69.6630 14.98285769255565
Epoch (UTC): 06 October 2022 15:22:41
Eccentricity: 0.0009067
inclination: 97.6474°
perigee height: 566 km
apogee height: 578 km
right ascension of ascending node: 183.1610°
argument of perigee: 290.3618°
revolutions per day: 14.98285769
mean anomaly at epoch: 69.6630°
orbit number at epoch: 25556

The dashed part of the orbit path shows where the satellite is in the earth's shadow,  

DLR